STARLINK-2123 (47401 NORAD) Tracking and Keplerian Element Data

This shows tracking and keplerian element data for the satellite.

Feedback or suggestion? Click here.




ElementValue
Catalog47401
NameSTARLINK-2123
Epoch Orbit177
Epoch Day101.91668981
Epoch Year2021
RAAN171.9569
Inclination53.0536
Eccentricity0.0004244
Argument of Perigee2.4838
Mean Anonmoly152.2475
Mean Motion15.62819658
Decay Rate-0.00091063
L11 47401U 21005BE 21101.91668981 -.00091063 00000-0 -99671-3 0 9993
L22 47401 53.0536 171.9569 0004244 2.4838 152.2475 15.62819658 1779

Live tracking and technical data element details for STARLINK-2123 (NORAD 47401). STARLINK-2123 can be tracked NOW for your location showing map with azimuth and elevation plus other details from your city location.

Track the satellite on the map from your city or location and see movement details for azimuth, elevation, latitude, longitude, range, height, and movement on the map or in text.







IsCatalogInMostPopularTable: catalog: 47401, numindb: 16
Update: records affected: 1



GetName: 47401 STARLINK-2123

Hit Count: updated at: Tue, 13 Apr 2021 05:03:52 GMT